Twin Falls, ID

7:46 AM MST on December 08, 2016 (GMT -0700)
Joslin Field-Magic Valley Regional

Weather History for KTWF - February, 2013

Change the Weather History Date:

Sunday, February 17, 2013

  Actual Average Record
Temperature  
Mean Temperature 38 °F -  
Max Temperature 46 °F 43 °F 60 °F (1981)
Min Temperature 29 °F 23 °F 5 °F (1993)
Degree Days  
Heating Degree Days 27 32  
Month to date heating degree days 512 569  
Since 1 July heating degree days 3931 4237  
Cooling Degree Days 0 0  
Month to date cooling degree days 0 0  
Year to date cooling degree days 0 0  
Moisture  
Dew Point 22 °F    
Average Humidity 58    
Maximum Humidity 75    
Minimum Humidity 40    
Precipitation  
Precipitation 0.00 in 0.03 in 0.26 in (1999)
Month to date precipitation 0.38 0.51  
Year to date precipitation 0.52 1.49  
Sea Level Pressure  
Sea Level Pressure 29.98 in    
Wind  
Wind Speed 17 mph (WSW)    
Max Wind Speed 32 mph    
Max Gust Speed 39 mph    
Visibility 10 miles    
Events      
T = Trace of Precipitation, MM = Missing Value Source: NWS Daily Summary

Daily Weather History Graph

Daily Weather History Graph

Search for Another Location

Airport or City:

Trip Planner

Search our weather history database for the weather conditions in past years. The results will help you decide how hot, cold, wet, or windy it might be!

Date:

Astronomy

Feb. 17, 2013 Rise Set
Actual Time 7:31 AM MST 6:13 PM MST
Civil Twilight 7:02 AM MST 6:41 PM MST
Nautical Twilight 6:29 AM MST 7:14 PM MST
Astronomical Twilight 5:57 AM MST 7:47 PM MST
Moon 11:17 AM MST (2/17) 1:22 AM MST (2/17)
Length of Visible Light 11h 39m
Length of Day
10h 41m
Waxing Crescent, 49% of the Moon is Illuminated
Feb 17
Waxing Crescent
Feb 17
First Quarter
Feb 25
Full
Mar 4
Last Quarter
Mar 11
New

Hourly Weather History & Observations

Time (MST) Temp. Windchill Dew Point Humidity Pressure Visibility Wind Dir Wind Speed Gust Speed Precip Events Conditions
12:50 AM 42.8 °F 34.0 °F 24.8 °F 49% 29.91 in 10.0 mi West 20.7 mph - N/A   Scattered Clouds
12:53 AM 43.0 °F 34.5 °F 25.0 °F 49% 29.87 in 10.0 mi WSW 19.6 mph - N/A   Scattered Clouds
1:53 AM 36.0 °F 26.0 °F 28.9 °F 76% 29.94 in 10.0 mi West 17.3 mph 26.5 mph N/A   Partly Cloudy
2:05 AM 35.6 °F 25.9 °F 28.4 °F 75% 29.97 in 10.0 mi WSW 16.1 mph - N/A   Mostly Cloudy
2:12 AM 37.4 °F 27.5 °F 28.4 °F 70% 29.97 in 10.0 mi WSW 18.4 mph - N/A   Mostly Cloudy
2:53 AM 36.0 °F 26.7 °F 28.0 °F 73% 29.94 in 10.0 mi SW 15.0 mph - N/A   Overcast
3:53 AM 37.0 °F 27.4 °F 28.0 °F 70% 29.92 in 10.0 mi SSW 17.3 mph - N/A   Overcast
4:53 AM 36.0 °F 27.5 °F 26.1 °F 67% 29.92 in 10.0 mi SW 12.7 mph - N/A   Overcast
5:53 AM 35.1 °F 24.8 °F 25.0 °F 67% 29.94 in 10.0 mi WSW 17.3 mph 24.2 mph N/A   Overcast
6:53 AM 33.1 °F 21.5 °F 24.1 °F 70% 29.95 in 10.0 mi WSW 19.6 mph - N/A   Partly Cloudy
7:53 AM 30.9 °F 19.1 °F 21.9 °F 69% 29.97 in 10.0 mi WSW 18.4 mph 25.3 mph N/A   Clear
8:53 AM 33.1 °F 21.9 °F 21.9 °F 64% 29.98 in 10.0 mi West 18.4 mph 29.9 mph N/A   Clear
9:53 AM 34.0 °F 22.1 °F 21.0 °F 59% 29.98 in 10.0 mi West 21.9 mph 29.9 mph N/A   Clear
10:53 AM 36.0 °F 23.2 °F 19.9 °F 52% 29.99 in 10.0 mi WSW 28.8 mph 35.7 mph N/A   Clear
11:53 AM 37.9 °F 26.8 °F 19.9 °F 48% 29.97 in 10.0 mi West 24.2 mph 35.7 mph N/A   Clear
12:53 PM 39.0 °F 28.3 °F 19.9 °F 46% 29.95 in 10.0 mi West 24.2 mph 34.5 mph N/A   Clear
1:53 PM 39.9 °F 29.5 °F 19.9 °F 45% 29.96 in 10.0 mi West 24.2 mph 29.9 mph N/A   Clear
2:53 PM 41.0 °F 30.9 °F 21.0 °F 45% 29.95 in 10.0 mi West 24.2 mph 31.1 mph N/A   Clear
3:53 PM 39.9 °F 31.1 °F 18.0 °F 41% 29.97 in 10.0 mi West 17.3 mph 26.5 mph N/A   Clear
4:53 PM 39.0 °F 29.0 °F 17.1 °F 41% 29.99 in 10.0 mi West 20.7 mph - N/A   Clear
5:53 PM 36.0 °F 27.5 °F 19.0 °F 50% 30.01 in 10.0 mi West 12.7 mph - N/A   Clear
6:53 PM 34.0 °F 26.0 °F 19.9 °F 56% 30.03 in 10.0 mi WSW 10.4 mph - N/A   Clear
7:53 PM 32.0 °F 25.6 °F 19.9 °F 61% 30.06 in 10.0 mi SW 6.9 mph - N/A   Clear
8:53 PM 32.0 °F 22.5 °F 19.9 °F 61% 30.06 in 10.0 mi SW 12.7 mph - N/A   Clear
10:53 PM 30.9 °F 22.2 °F 19.9 °F 64% 30.07 in 10.0 mi South 10.4 mph - N/A   Clear
11:53 PM 28.9 °F 19.2 °F 19.0 °F 67% 30.08 in 10.0 mi South 11.5 mph - N/A   Clear